weather.gov     
National Weather Service

Terminal Aerodrome Forecast
NWS Homepage
This page is being discontinued on March 12, 2014.
The same data is available at this site. Please update your bookmarks.
Thank you, and we apologize for the inconvenience.
Please send an email to SR-SRH.Webmaster@noaa.gov with any concerns.


Current Version
Previous Version:    01  02  03  04  05  06  07  08  09  10  11  12  13  14  15  16  17  18  19  20  21  22  23  24  25  26  27  28  29  30  
   31  32  33  34  35  
[Printable]
145
FTAK31 PAJN 211700
TAFAGY
TAF
PAGY 211722Z 2118/2218 02002KT P6SM -RA BKN035 OVC050
      TEMPO 2118/2119 20012G17KT 5SM -RASN BKN015 OVC025
     FM212100 03010KT 6SM -RA BR BKN030 OVC040
     FM220000 03010KT 5SM -RASN BKN025 OVC040
     FM220700 04008KT 6SM BR VCSH BKN020 BKN050
      AMD LTD TO CLD VIS AND WIND=


U.S. Dept. of Commerce
NOAA National Weather Service
1325 East West Highway
Silver Spring, MD 20910
E-mail: w-nws.webmaster@noaa.gov
Page last modified: May 16, 2007
NATIONAL WEATHER SERVICE: for Safety, for Work, for Fun - FOR LIFE